Regional Weather Roundup
Issued by NWS Bismarck, ND

Home | Current Version | Previous Version | Text Only | Print | Product List | Glossary On
Versions: 1 2 3 4 5 6 7 8 9 10 11 12 13 14 15 16 17 18 19 20 21 22 23 24 25 26 27 28 29 30 31 32 33 34 35 36 37 38 39 40 41 42 43 44 45 46 47 48 49 50
000
ASUS43 KBIS 160820
RWRBIS

NWR BROADCAST TEXT
NATIONAL WEATHER SERVICE BISMARCK ND
300 AM CDT TUE SEP 16 2014

NOTE: "FAIR" INDICATES FEW OR NO CLOUDS BELOW 12,000 FEET WITH NO
SIGNIFICANT WEATHER AND/OR OBSTRUCTIONS TO VISIBILITY.


CITY           SKY/WX    TMP DP  RH WIND       PRES   REMARKS
WILLISTON      CLEAR     36  33  89 CALM      30.05S FOG
MINOT          CLEAR     50  40  68 SW9       30.04F
MINOT AFB      CLEAR     46  40  81 SW8       30.03F
BISMARCK       CLEAR     43  37  79 E3        30.10F
DICKINSON      CLEAR     44  38  79 S12       30.05S
GARRISON         N/A     49  40  71 SW3       30.07S
HETTINGER ARPT CLEAR     44  37  76 SE5       30.08F
JAMESTOWN      CLEAR     44  37  76 S8        30.11S
BEACH            N/A     37  37 100 S5        30.06S
CARRINGTON     FAIR      45  39  81 SW9       30.09F
CROSBY         FAIR      43  37  81 SW9       30.04S
HARVEY         FAIR      39  37  93 SW8       30.07F
HAZEN          FAIR      37  36  93 CALM      30.07F
LINTON         FAIR      41  37  87 SE7       30.11F
MANDAN         FAIR      46  37  71 S10       30.10S
OAKES            N/A     39  39 100 S9        30.15S
RUGBY          FAIR      45  39  81 S9        30.05S
STANLEY        FAIR      37  37 100 CALM      30.05F
TIOGA          FAIR      32  32 100 CALM      30.07F
WATFORD CITY   FAIR      34  32  93 SW3       30.03S
$$

CITY           SKY/WX    TMP DP  RH WIND       PRES   REMARKS
GRAND FORKS    CLEAR     43  38  82 SW6       30.05F
GRAND FORKS AF CLEAR     52  39  61 W12       30.05F
DEVILS LAKE    CLEAR     54  39  58 SW13      30.05S
FARGO          CLEAR     48  38  68 SW12      30.12S
CANDO          FAIR      43  37  81 SW9       30.05S
CAVALIER       FAIR      54  39  58 SW10      30.01S
GRAFTON        FAIR      46  39  76 SW9       30.03S
GWINNER        SUNNY     43  36  75 SW8       30.16S
LANGDON        FAIR      41  37  87 SW6       30.03S
ROLLA          FAIR      46  37  71 SW10      30.05S
WALHALLA         N/A     55  37  50 W7        30.01S
$$

CITY           SKY/WX    TMP DP  RH WIND       PRES   REMARKS
ABERDEEN       CLEAR     34  33  96 S3        30.17S
MOBRIDGE       CLEAR     50  41  71 S14       30.09F
BUFFALO          N/A     49  41  74 SE3       30.00S
RAPID CITY     CLEAR     48  42  80 SE5       30.06F
GLASGOW        CLEAR     48  36  63 E12       30.02F
SIDNEY         CLEAR     37  32  81 CALM      30.05F
WOLF POINT     CLEAR     40  33  76 CALM      30.04F
GLENDIVE       CLEAR     43  36  75 N9        30.05F
MILES CITY     CLEAR     48  39  71 NE7       30.03S
BAKER          CLEAR     44  42  93 E5        30.06S
$$

CITY           SKY/WX    TMP DP  RH WIND       PRES   REMARKS
BILLINGS       CLEAR     51  44  77 SW10      30.05F
GREAT FALLS    CLEAR     49  37  63 SW10      30.01F
REGINA         CLEAR     43  39  87 SE3       30.01F
ESTEVAN        CLEAR     41  36  81 SW5       30.04S
$$



USA.gov is the U.S. government's official web portal to all federal, state and local government web resources and services.